Hanamaulu, HI

11:43 PM HST on February 05, 2016 (GMT -1000)
Lihue

Weather History for PHLI - November, 2011

Change the Weather History Date:

Thursday, November 17, 2011

  Actual Average Record
Temperature  
Mean Temperature 76 °F 76 °F  
Max Temperature 80 °F 81 °F 87 °F (1997)
Min Temperature 72 °F 71 °F 64 °F (1950)
Cooling Degree Days 11 11  
Month to date cooling degree days 177 194  
Year to date cooling degree days 3769 3561  
Growing Degree Days 26 (Base 50)    
Moisture  
Dew Point 70 °F    
Average Humidity 81    
Maximum Humidity 87    
Minimum Humidity 74    
Precipitation  
Precipitation T in 0.15 in 3.23 in (1990)
Month to date precipitation 4.54 2.58  
Year to date precipitation 39.02 29.97  
Snow  
Snow 0.00 in - - ()
Month to date snowfall 0.0  
Since 1 July snowfall 0.0  
Since 1 September snowfall 0.0  
Snow Depth 0.00 in    
Sea Level Pressure  
Sea Level Pressure 30.06 in    
Wind  
Wind Speed 14 mph (ENE)    
Max Wind Speed 17 mph    
Max Gust Speed 21 mph    
Visibility 10 miles    
Events Rain    
T = Trace of Precipitation, MM = Missing Value Source: NWS Daily Summary

Daily Weather History Graph

Daily Weather History Graph

Search for Another Location

Airport or City:

Trip Planner

Search our weather history database for the weather conditions in past years. The results will help you decide how hot, cold, wet, or windy it might be!

Date:

Astronomy

Nov. 17, 2011 Rise Set
Actual Time 6:50 AM HST 5:54 PM HST
Civil Twilight 6:26 AM HST 6:17 PM HST
Nautical Twilight 5:59 AM HST 6:44 PM HST
Astronomical Twilight 5:32 AM HST 7:11 PM HST
Moon No Moon Rise 12:19 PM HST (11/17)
Length of Visible Light 11h 50m
Length of Day
11h 03m
Waning Gibbous, 58% of the Moon is Illuminated
Nov 17
Waning Gibbous
Nov 18
Last Quarter
Nov 24
New
Dec 1
First Quarter
Dec 10
Full

Hourly Weather History & Observations

Time (HST) Temp. Heat Index Dew Point Humidity Pressure Visibility Wind Dir Wind Speed Gust Speed Precip Events Conditions
12:53 AM 75.0 °F - 70.0 °F 84% 30.05 in 10.0 mi ENE 13.8 mph - 0.00 in Rain Light Rain
1:53 AM 73.9 °F - 70.0 °F 87% 30.03 in 10.0 mi ENE 15.0 mph - 0.00 in   Mostly Cloudy
2:38 AM 75.2 °F - 69.8 °F 83% 30.04 in 10.0 mi East 12.7 mph - N/A   Mostly Cloudy
2:49 AM 75.2 °F - 69.8 °F 83% 30.03 in 10.0 mi East 13.8 mph - N/A   Mostly Cloudy
2:53 AM 73.9 °F - 70.0 °F 87% 30.03 in 10.0 mi East 12.7 mph - N/A   Scattered Clouds
3:53 AM 73.9 °F - 69.1 °F 85% 30.01 in 10.0 mi East 13.8 mph - 0.00 in   Partly Cloudy
4:23 AM 75.2 °F - 69.8 °F 83% 30.02 in 10.0 mi ENE 13.8 mph - N/A   Mostly Cloudy
4:33 AM 75.2 °F - 69.8 °F 83% 30.02 in 10.0 mi East 13.8 mph - N/A   Scattered Clouds
4:53 AM 75.0 °F - 70.0 °F 84% 30.01 in 10.0 mi ENE 15.0 mph - N/A   Scattered Clouds
5:53 AM 75.6 °F - 70.0 °F 83% 30.03 in 10.0 mi ENE 13.8 mph - N/A   Partly Cloudy
6:53 AM 75.0 °F - 69.1 °F 82% 30.06 in 10.0 mi ENE 15.0 mph - N/A   Partly Cloudy
7:53 AM 75.9 °F - 69.1 °F 79% 30.08 in 10.0 mi ENE 12.7 mph - N/A   Partly Cloudy
8:53 AM 77.0 °F - 70.0 °F 79% 30.10 in 10.0 mi ENE 16.1 mph - N/A   Scattered Clouds
9:53 AM 79.0 °F - 70.0 °F 74% 30.11 in 10.0 mi ENE 15.0 mph - N/A   Scattered Clouds
10:53 AM 80.1 °F 83.6 °F 71.1 °F 74% 30.09 in 10.0 mi ENE 15.0 mph - N/A   Scattered Clouds
11:00 AM 78.8 °F - 71.6 °F 78% 30.09 in 10.0 mi ENE 15.0 mph - N/A   Mostly Cloudy
11:15 AM 78.8 °F - 69.8 °F 74% 30.09 in 10.0 mi ENE 12.7 mph - N/A   Scattered Clouds
11:53 AM 80.1 °F 83.6 °F 71.1 °F 74% 30.08 in 10.0 mi East 12.7 mph - N/A   Scattered Clouds
12:53 PM 79.0 °F - 70.0 °F 74% 30.05 in 10.0 mi ENE 13.8 mph - N/A   Scattered Clouds
1:53 PM 79.0 °F - 70.0 °F 74% 30.03 in 10.0 mi ENE 15.0 mph - N/A   Partly Cloudy
2:53 PM 78.1 °F - 70.0 °F 76% 30.03 in 10.0 mi ENE 13.8 mph - N/A   Scattered Clouds
3:53 PM 78.1 °F - 69.1 °F 74% 30.04 in 10.0 mi ENE 15.0 mph - N/A   Scattered Clouds
4:53 PM 77.0 °F - 70.0 °F 79% 30.04 in 10.0 mi ENE 16.1 mph - N/A   Scattered Clouds
5:53 PM 75.9 °F - 69.1 °F 79% 30.05 in 10.0 mi ENE 16.1 mph 23.0 mph N/A   Scattered Clouds
6:53 PM 75.9 °F - 70.0 °F 82% 30.07 in 10.0 mi ENE 17.3 mph - N/A   Scattered Clouds
7:24 PM 75.2 °F - 69.8 °F 83% 30.09 in 10.0 mi ENE 15.0 mph - N/A   Mostly Cloudy
7:41 PM 75.2 °F - 69.8 °F 83% 30.10 in 10.0 mi East 17.3 mph - N/A   Scattered Clouds
7:53 PM 75.9 °F - 69.1 °F 79% 30.10 in 10.0 mi ENE 18.4 mph - N/A   Clear
8:53 PM 75.9 °F - 69.1 °F 79% 30.11 in 10.0 mi ENE 16.1 mph - N/A   Scattered Clouds
9:53 PM 75.9 °F - 69.1 °F 79% 30.11 in 10.0 mi East 18.4 mph - N/A   Partly Cloudy
10:53 PM 75.9 °F - 69.1 °F 79% 30.11 in 10.0 mi ENE 12.7 mph - N/A   Partly Cloudy
11:53 PM 75.9 °F - 69.1 °F 79% 30.10 in 10.0 mi ENE 17.3 mph - 0.00 in   Overcast